GEFSSGP_con_prob3kmehi_096.txt.gz
EHI
6 12 20 17 8 5 3 1 0 0 0 0 0 3 12 21 23 20 25 46 66 59 43 42 39 23 10 5 1 0 1 2 2 1 0 0 0 0 0 0 0 0 0 0 0 0 0 0 0
4 8 13 10 5 2 1 0 0 0 0 0 1 5 14 22 22 19 28 51 63 51 37 39 40 27 12 5 2 0 1 3 2 1 0 0 0 0 0 0 0 0 0 0 0 0 0 0 0
2 4 5 3 1 0 0 0 0 0 0 0 3 11 21 23 21 22 34 51 57 46 36 38 39 29 13 5 2 1 2 3 2 1 0 0 0 0 0 0 0 0 0 0 0 0 0 0 0
1 2 1 0 0 0 0 0 0 0 0 1 7 20 29 27 24 27 36 48 53 46 38 37 35 25 11 4 2 3 3 2 1 0 0 0 0 0 0 0 0 0 0 0 0 0 0 0 0
0 0 0 0 0 0 0 0 0 0 1 3 12 28 35 29 25 26 32 42 48 45 38 35 32 23 11 5 3 3 2 1 0 0 0 0 0 0 0 0 0 0 0 0 0 0 0 0 0
0 0 0 0 0 0 0 0 0 1 3 4 14 31 37 30 22 20 24 33 42 45 38 31 28 22 12 6 4 3 1 0 0 0 0 0 0 0 0 0 0 0 0 0 0 0 0 0 0
0 0 0 0 0 0 0 0 0 2 3 4 12 28 39 37 28 21 22 29 39 43 35 24 19 16 11 6 3 2 1 0 0 0 0 0 0 0 0 0 0 0 0 0 0 0 0 0 0
0 0 0 0 0 0 0 0 0 2 5 7 15 32 45 46 38 32 29 34 41 40 29 17 11 10 7 4 2 1 0 0 0 0 0 0 0 0 0 0 0 0 0 0 1 0 0 0 0
0 0 0 0 0 0 0 0 0 2 7 15 30 49 57 52 47 45 44 47 50 44 30 19 14 9 5 3 2 1 0 0 0 0 0 0 0 0 0 0 0 0 0 0 0 0 0 0 0
0 0 0 0 0 0 0 0 0 2 9 25 48 66 66 57 54 54 55 60 63 54 42 34 27 15 7 5 4 2 1 1 1 2 1 1 1 1 2 2 1 0 0 0 0 0 0 0 0
0 0 0 0 0 0 0 0 0 3 13 34 58 71 71 64 59 57 59 65 70 63 53 47 41 27 18 15 9 6 4 4 6 7 4 2 2 5 7 4 1 0 1 1 1 0 1 1 1
0 0 0 0 0 0 0 0 1 6 20 39 56 67 72 69 61 55 59 69 73 66 58 56 52 44 39 32 21 14 12 11 11 13 10 6 7 13 15 10 5 3 3 3 2 2 2 2 2
0 0 0 0 0 0 0 0 2 10 23 36 48 59 67 68 62 56 61 73 74 65 62 66 66 61 57 51 39 31 26 21 20 20 19 15 15 17 19 16 11 6 5 5 4 3 3 3 2
0 0 0 0 0 0 0 1 5 12 22 32 42 52 59 62 61 60 65 71 68 60 63 72 73 68 62 55 48 42 33 27 29 29 26 23 19 16 15 13 10 7 6 6 5 3 2 2 1
0 0 0 0 0 0 0 3 9 17 23 30 38 47 55 58 59 60 62 64 59 55 59 64 64 62 57 49 44 37 28 26 31 32 26 22 17 12 9 7 5 5 4 4 3 2 1 1 0
0 0 0 0 0 0 1 7 16 22 24 28 37 47 55 57 56 56 56 54 51 51 54 54 53 56 55 50 43 34 27 27 29 28 22 16 12 8 5 5 4 2 1 1 1 0 0 0 0
0 0 0 0 0 0 1 9 19 22 22 27 38 50 57 55 52 51 50 48 46 51 53 51 51 55 55 51 44 36 31 28 27 24 17 10 7 4 3 3 3 1 0 0 0 0 0 0 0
0 0 0 0 0 0 2 9 17 20 20 26 39 53 58 53 46 44 44 43 46 50 51 49 51 54 53 46 39 34 29 25 22 19 14 7 3 2 1 2 3 1 0 0 0 0 0 0 0
0 0 0 0 0 0 1 7 15 19 20 26 39 52 56 49 42 40 38 37 42 47 47 45 46 50 49 42 35 29 23 20 17 13 10 5 2 2 2 2 3 1 0 0 0 0 0 0 0
0 0 0 0 0 0 1 6 13 18 20 24 35 48 51 45 41 39 34 31 35 39 40 38 37 40 43 41 36 28 20 14 11 9 7 4 2 2 1 2 2 1 0 0 1 1 0 0 0
0 0 0 0 0 0 1 4 11 16 15 17 27 39 43 40 38 37 32 29 28 29 30 29 29 32 36 37 34 26 17 9 7 9 8 5 3 2 1 1 1 0 0 1 2 2 1 0 0
0 0 0 0 0 0 0 3 9 13 12 12 20 30 34 32 34 36 32 28 24 23 24 27 29 32 34 34 32 24 14 7 8 12 13 10 7 3 1 0 0 0 0 1 2 2 2 1 0
0 0 0 0 0 0 0 2 6 10 11 11 16 23 27 27 30 34 32 26 22 21 24 30 34 37 37 35 32 24 13 8 11 17 21 16 10 6 2 1 1 2 1 0 1 1 2 2 1
0 0 0 0 0 0 0 1 4 7 9 11 12 16 22 25 27 31 31 27 23 22 27 34 38 41 41 37 32 23 15 14 18 22 24 17 11 8 5 4 4 3 1 0 0 1 3 2 1
0 0 0 0 0 0 0 1 2 3 5 8 9 11 17 24 27 31 33 30 28 29 34 39 43 46 44 37 30 23 19 20 21 20 18 13 9 9 9 8 6 5 2 1 1 2 3 3 2
0 0 0 0 0 0 0 0 1 1 2 5 7 9 13 22 28 31 34 35 34 36 41 47 51 51 47 40 34 30 25 20 17 15 12 7 5 9 12 11 7 5 3 2 2 3 3 3 3
0 0 0 0 0 0 0 0 0 1 1 3 6 8 12 18 24 31 36 39 39 42 49 55 59 60 54 47 41 38 30 19 15 15 11 5 3 7 12 12 9 6 4 3 3 3 3 3 3
0 0 0 0 0 0 0 0 1 1 1 2 6 10 13 16 20 30 39 42 43 48 56 61 65 66 61 52 43 36 30 21 18 20 16 10 8 10 13 13 10 8 6 4 4 3 3 3 3
0 0 0 0 0 0 0 1 1 1 1 1 5 10 14 15 20 32 44 48 49 53 60 66 68 66 60 52 43 38 34 28 25 29 28 24 19 17 17 16 13 10 7 6 5 4 3 3 3
0 0 0 0 0 0 1 2 2 1 0 1 4 9 14 16 20 35 49 53 54 57 62 68 68 63 56 51 47 47 45 39 34 35 37 34 29 22 19 17 13 10 9 7 6 5 4 3 3

GEFSSGP_con_prob3kmehi_102.txt.gz
EHI
10 4 0 1 1 1 0 0 0 0 1 4 9 14 15 12 7 5 9 23 41 44 39 46 59 55 35 16 5 1 0 0 0 0 0 0 0 0 0 0 0 0 0 0 0 0 0 0 0
4 2 0 0 0 0 0 0 0 0 1 5 12 16 16 12 10 10 15 29 45 48 42 47 61 60 40 19 7 1 0 0 0 0 0 0 0 0 0 0 0 0 0 0 0 0 0 0 0
0 0 0 0 0 0 0 0 0 1 3 10 19 21 16 11 13 18 27 42 54 54 48 53 64 63 46 24 8 1 0 0 0 0 0 0 0 0 0 0 0 0 0 0 0 0 0 0 0
0 0 0 0 1 0 0 0 1 3 9 20 31 30 19 17 25 35 45 56 63 61 56 59 65 62 47 26 8 1 0 0 0 0 0 0 0 0 0 0 0 0 0 0 0 0 0 0 0
0 0 0 0 0 0 0 0 2 7 18 33 44 39 28 31 47 57 58 63 68 68 62 61 64 59 45 26 8 1 0 0 0 0 0 0 0 0 0 0 0 0 0 0 0 0 0 0 0
0 0 0 0 0 0 0 0 4 12 25 41 51 47 39 46 63 67 61 60 67 69 65 59 56 50 38 24 9 1 0 0 0 0 0 0 0 0 0 0 0 0 0 0 0 0 0 0 0
0 0 0 0 0 0 0 0 4 14 29 45 55 53 48 55 66 69 63 59 62 66 62 53 45 38 30 21 10 2 0 0 0 0 0 0 0 0 0 0 0 0 0 0 0 0 0 0 1
0 0 0 0 0 0 0 1 6 19 35 50 56 54 53 61 72 76 71 64 61 60 55 46 38 32 25 16 8 3 1 0 0 0 0 0 0 0 0 0 0 0 0 0 0 0 0 1 2
0 0 0 0 0 0 0 2 11 28 46 59 61 58 62 73 82 84 78 70 64 56 47 40 35 30 23 15 7 3 1 0 0 0 0 0 0 0 0 0 0 0 0 0 0 0 0 1 2
0 0 0 0 0 0 0 3 14 32 51 64 69 70 75 82 86 87 81 71 61 52 41 34 30 27 23 16 8 3 1 0 0 0 0 0 0 0 0 0 0 0 0 0 0 0 0 1 1
0 0 0 0 0 0 0 2 12 27 44 60 71 78 81 82 83 83 79 68 55 46 37 27 23 23 20 15 9 4 1 0 0 0 0 0 0 0 0 0 0 0 0 0 0 0 0 0 0
0 0 0 0 0 0 0 3 10 21 38 56 70 76 77 76 76 79 77 67 54 44 35 26 19 16 15 14 9 4 1 0 0 0 0 0 0 0 0 0 0 0 0 0 0 0 0 0 0
0 0 0 0 0 0 1 7 17 28 45 63 72 74 71 68 69 72 73 67 57 44 33 26 19 14 13 13 9 3 0 0 0 0 0 0 0 0 0 0 0 0 0 0 0 0 0 0 0
0 0 0 0 0 0 2 9 24 41 57 68 72 71 67 62 62 65 68 67 58 44 32 24 19 16 14 11 7 4 1 0 0 0 0 0 0 0 0 0 0 0 0 0 0 0 0 0 0
0 0 0 0 0 0 1 6 23 45 59 66 69 70 67 61 57 59 63 62 55 43 33 25 20 17 14 9 6 5 3 1 1 1 0 0 0 0 0 0 0 0 0 0 0 0 0 0 0
0 0 0 0 0 0 0 4 19 42 56 61 66 69 67 60 55 55 56 53 46 38 32 27 22 18 15 11 8 7 5 3 4 3 1 0 0 0 0 0 0 0 0 0 0 0 0 0 0
0 0 0 0 0 0 1 4 16 35 49 57 62 64 62 55 47 45 44 40 33 27 25 25 24 22 19 14 10 8 6 6 7 5 3 1 0 0 0 0 0 0 0 0 0 0 0 0 0
0 0 0 0 0 1 2 5 13 26 40 49 55 57 55 48 38 33 31 28 24 19 19 22 24 24 21 16 11 8 7 7 7 5 2 1 0 0 0 0 0 0 0 0 0 0 0 0 0
0 0 0 0 0 1 3 6 10 19 30 39 44 48 47 42 34 28 25 23 20 18 19 22 23 21 19 16 10 7 6 5 4 2 1 0 0 0 0 0 0 0 0 0 0 0 0 0 0
0 0 0 0 0 1 3 5 8 12 20 27 33 39 42 40 34 28 24 22 21 20 19 20 19 16 13 11 8 4 3 2 1 0 0 0 0 0 0 0 0 0 0 0 0 0 0 0 0
0 0 0 0 0 0 1 2 4 8 14 19 24 32 38 38 32 27 24 22 20 19 18 17 14 11 10 9 7 4 2 1 0 0 0 0 0 0 0 0 0 0 0 0 0 0 0 0 0
0 0 0 0 0 0 0 0 1 4 8 11 17 25 32 34 31 26 22 19 17 16 16 15 13 10 10 10 11 8 4 1 1 0 0 0 0 0 0 0 0 0 0 0 0 0 0 0 0
0 0 0 0 0 0 0 0 0 2 3 5 11 19 26 30 27 23 19 17 15 15 16 15 13 11 11 11 12 9 4 1 1 1 0 0 0 0 0 0 0 0 0 0 0 0 0 0 0
0 0 0 0 0 0 0 0 0 0 0 1 7 16 24 26 23 19 16 14 13 14 15 14 12 10 11 12 11 7 2 1 1 1 0 0 0 0 0 0 0 0 0 0 0 0 0 0 0
0 0 0 0 0 0 0 0 0 0 0 0 5 14 22 23 21 18 15 14 13 14 14 14 11 11 12 12 10 6 3 2 1 0 0 0 0 0 0 0 0 0 0 0 0 0 0 0 0
0 0 0 0 0 0 0 0 0 0 0 0 4 11 17 19 20 19 17 16 15 16 16 16 14 12 13 12 9 6 3 3 2 1 0 0 0 0 0 0 0 0 0 0 0 0 0 0 0
0 0 0 0 0 0 0 0 0 0 0 1 4 8 9 13 17 19 19 18 17 17 18 18 17 15 13 12 8 5 3 3 3 1 0 0 0 0 0 0 0 0 0 0 0 0 0 0 0
0 0 0 0 0 0 0 0 0 0 0 1 3 4 4 7 14 19 21 21 19 17 18 19 19 17 14 10 6 4 3 3 3 2 0 0 0 0 0 0 0 0 0 0 0 0 0 0 0
0 0 0 0 0 0 0 0 0 0 1 2 2 2 2 4 10 16 21 22 20 19 19 20 20 18 14 8 4 3 2 2 2 1 0 0 0 0 0 0 0 0 0 0 0 0 0 0 0
0 0 0 0 0 0 0 0 0 0 1 3 3 2 1 2 6 12 18 21 21 21 21 21 21 20 14 8 3 1 1 1 1 0 0 0 0 0 0 0 0 0 0 0 0 0 0 0 0

GEFSSGP_con_prob3kmehi_108.txt.gz
EHI
0 1 1 1 0 0 0 0 0 0 0 0 0 1 2 2 1 1 2 11 29 38 26 22 31 38 43 45 41 36 30 20 10 5 3 2 1 0 0 0 0 0 0 0 0 0 0 0 0
0 0 0 0 0 0 0 0 0 0 0 0 1 2 3 3 3 3 5 18 37 44 31 26 34 40 43 42 36 29 22 13 6 3 2 1 0 0 0 0 0 0 0 0 0 0 0 0 0
0 0 0 0 0 0 0 0 0 1 2 3 5 4 3 4 5 5 12 30 48 48 35 32 41 46 44 39 30 21 13 7 3 1 1 0 0 0 0 0 0 0 0 0 0 0 0 0 0
0 0 0 0 0 0 0 1 3 4 6 11 13 9 5 5 9 14 26 46 55 48 37 39 51 55 48 37 26 17 10 6 3 1 0 0 0 0 0 0 0 0 0 0 0 0 0 0 0
0 0 0 0 0 0 0 2 6 9 14 22 24 16 9 11 20 31 43 55 59 52 44 48 58 60 49 36 25 16 11 7 4 1 0 0 0 0 0 0 0 0 0 0 0 0 0 0 0
0 0 0 0 0 0 1 4 8 15 25 33 34 25 15 19 33 45 51 55 60 62 58 58 59 56 45 33 25 19 12 7 4 1 0 0 0 0 0 0 0 0 0 0 0 0 0 0 0
0 0 0 0 0 0 0 4 11 21 34 42 43 34 24 27 41 53 57 59 65 71 72 66 58 50 41 30 23 18 12 5 2 0 0 0 0 0 0 0 0 0 0 0 0 0 0 0 0
0 0 0 0 0 0 0 3 11 25 39 49 48 38 32 40 54 63 68 70 72 73 71 67 58 49 39 29 21 15 9 3 1 0 0 0 0 0 0 0 0 0 0 0 0 0 0 0 0
0 0 0 0 0 0 1 4 12 29 46 54 50 42 47 63 73 75 77 77 73 67 63 60 57 51 42 31 21 13 7 2 0 0 0 0 0 0 0 0 0 0 0 0 0 0 0 0 0
0 0 0 0 0 0 1 5 16 34 50 55 55 57 69 81 83 78 77 74 69 63 56 50 50 49 43 34 25 17 9 3 0 0 0 0 0 0 0 0 0 0 0 0 0 0 0 0 0
0 0 0 0 0 0 1 6 19 35 44 50 60 73 84 86 80 74 70 66 63 58 49 41 41 42 40 36 29 20 12 5 1 0 0 0 0 0 0 0 0 0 0 0 0 0 0 0 0
0 0 0 0 0 0 3 9 18 27 32 42 61 78 87 84 73 65 60 56 55 51 44 37 34 35 34 34 29 20 12 6 1 0 0 0 0 0 0 0 0 0 0 0 0 0 0 0 0
0 0 0 0 0 1 6 12 16 19 27 45 66 80 85 80 69 58 50 47 46 43 39 35 30 28 28 29 26 18 10 5 1 0 0 0 0 0 0 0 0 0 0 0 0 0 0 0 0
0 0 0 0 0 2 6 11 13 18 31 53 72 79 80 77 67 54 44 40 37 33 31 29 26 25 24 23 19 13 7 4 1 0 0 0 0 0 0 0 0 0 0 0 0 0 0 0 0
0 0 0 0 0 1 3 6 10 21 38 56 68 72 72 70 61 49 40 33 28 24 21 21 21 21 20 18 13 8 4 2 1 0 0 0 0 0 0 0 0 0 0 0 0 0 0 0 0
0 0 0 0 0 0 1 2 9 25 42 53 60 63 61 57 50 42 34 28 22 18 16 15 16 17 17 15 10 5 3 1 0 0 0 0 0 0 0 0 0 0 0 0 0 0 0 0 0
0 0 0 0 0 0 0 1 10 26 40 48 53 54 50 45 40 35 31 25 18 14 11 11 12 14 14 12 8 4 2 1 0 0 0 0 0 0 0 0 0 0 0 0 0 0 0 0 0
0 0 0 0 0 0 0 1 9 24 36 41 44 43 40 36 33 31 29 25 18 11 8 7 9 11 11 9 6 3 2 1 0 0 0 0 0 0 0 0 0 0 0 0 0 0 0 0 0
0 0 0 0 0 0 0 1 8 20 30 34 34 33 30 27 26 26 25 23 19 13 8 6 7 8 8 6 4 3 3 2 1 0 0 0 0 0 0 0 0 0 0 0 0 0 0 0 0
0 0 0 0 0 0 0 1 5 13 20 24 26 27 25 22 21 21 21 21 20 15 10 8 8 9 8 6 5 3 3 2 1 0 0 0 0 0 0 0 0 0 0 0 0 0 0 0 0
0 0 0 0 0 0 0 0 2 5 8 12 17 21 22 20 20 21 20 18 15 13 10 9 9 9 8 7 5 3 2 1 1 1 0 0 0 0 0 0 0 0 0 0 0 0 0 0 0
0 0 0 0 0 0 0 0 0 0 1 4 8 13 16 18 21 22 18 14 11 10 8 7 7 7 8 7 5 3 3 2 2 2 1 0 0 0 0 0 0 0 0 0 0 0 0 0 0
0 0 0 0 0 0 0 0 0 0 0 1 3 5 8 14 19 20 15 10 8 7 6 5 6 6 7 7 5 3 3 3 3 3 1 0 0 0 0 0 0 0 0 0 0 0 0 0 0
0 0 0 0 0 0 0 0 0 0 0 0 0 1 3 9 13 14 11 8 7 7 5 4 5 6 7 7 5 4 3 3 3 3 2 1 0 0 0 0 0 0 0 0 0 0 0 0 0
0 0 0 0 0 0 0 0 0 0 0 0 0 0 1 4 7 9 9 8 8 8 6 5 5 6 7 7 5 3 3 3 3 3 3 1 0 0 0 0 0 0 0 0 0 0 0 0 0
0 0 0 0 0 0 0 0 0 0 0 0 0 0 0 2 4 6 6 7 8 8 7 7 7 7 7 6 4 3 3 3 3 3 3 2 1 0 0 0 0 0 0 0 0 0 0 0 0
0 0 0 0 0 0 0 0 0 0 0 0 0 0 0 0 2 3 4 4 5 6 7 7 7 7 6 6 5 4 3 3 3 3 3 2 1 0 0 0 0 0 0 0 0 0 0 0 0
0 0 0 0 0 0 0 0 0 0 0 0 0 0 0 0 0 1 1 2 3 4 5 6 6 6 6 5 5 4 3 3 3 3 3 2 1 0 0 0 0 0 0 0 0 0 0 0 0
0 0 0 0 0 0 0 0 0 0 0 0 0 0 0 0 0 0 0 1 1 2 4 6 7 7 6 6 5 4 2 1 2 3 2 1 0 0 0 0 0 0 0 0 0 0 0 0 0
0 0 0 0 0 0 0 0 0 0 0 0 0 0 0 0 0 0 0 0 0 2 5 7 9 8 7 6 6 4 1 0 1 2 1 0 0 0 0 0 0 0 0 0 0 0 0 0 0

GEFSSGP_con_prob3kmehi_114.txt.gz
EHI
0 0 1 1 1 0 0 0 0 0 0 0 0 0 0 0 1 2 4 10 20 30 28 15 6 9 19 29 36 40 38 30 21 14 7 3 1 0 0 0 0 0 0 0 0 0 0 0 0
0 0 0 0 0 0 0 0 0 0 0 0 0 0 0 1 3 5 9 15 24 31 30 21 13 12 18 26 32 35 33 26 18 11 6 2 0 0 0 0 0 0 0 0 0 0 0 0 0
0 0 0 0 0 0 0 0 0 0 0 0 0 0 0 2 5 11 19 25 30 33 36 33 24 18 19 22 25 27 25 19 13 7 3 1 0 0 0 0 0 0 0 0 0 0 0 0 0
0 0 0 0 0 0 0 0 0 0 0 1 1 0 2 7 14 23 33 37 36 35 38 40 32 23 21 20 20 19 17 14 9 4 1 0 0 0 0 0 0 0 0 0 0 0 0 0 0
0 0 0 0 0 0 0 0 0 0 1 2 2 3 10 22 32 39 43 41 37 32 36 41 36 27 22 19 18 16 13 9 6 2 0 0 0 0 0 0 0 0 0 0 0 0 0 0 0
0 0 0 0 0 0 0 0 0 0 1 2 3 7 23 41 50 50 44 36 29 27 34 39 33 25 21 18 16 14 12 8 5 3 1 1 1 1 0 0 0 0 0 0 0 0 0 0 0
0 0 0 0 0 0 0 0 0 0 1 2 4 12 34 58 65 56 44 31 23 22 31 35 26 17 15 12 12 12 13 10 6 4 2 2 2 1 0 0 0 0 0 0 0 0 0 0 0
0 0 0 0 0 0 0 0 0 0 1 4 7 17 43 71 77 68 54 39 28 23 27 28 20 11 8 6 7 11 12 10 6 3 2 2 2 1 0 0 0 0 0 0 0 0 0 0 0
0 0 0 0 0 0 0 0 0 0 3 9 16 31 60 82 87 82 71 58 46 35 28 24 19 12 6 3 4 7 9 7 3 1 0 1 1 0 0 0 0 0 0 0 0 0 0 0 0
0 0 0 0 0 0 0 0 0 1 5 13 27 50 75 89 92 90 84 74 64 51 34 25 23 19 12 8 7 6 4 3 1 0 0 0 0 0 0 0 1 0 0 0 0 0 0 0 0
0 0 0 0 0 0 0 0 0 1 6 13 31 59 81 89 92 91 86 78 69 58 43 33 30 26 20 18 15 9 4 1 0 0 0 0 0 0 0 0 0 0 0 0 0 0 0 0 0
0 0 0 0 0 0 0 0 0 2 6 13 31 60 80 87 88 86 81 75 69 62 52 43 37 33 30 28 23 15 8 3 1 0 0 1 1 1 0 0 0 0 0 0 0 0 0 0 0
0 0 0 0 0 0 0 0 1 4 10 17 34 59 77 84 83 78 73 70 68 64 56 48 41 37 37 34 28 21 13 7 3 0 0 1 2 2 1 0 0 0 0 0 0 0 0 0 0
0 0 0 0 0 0 0 0 1 6 14 23 37 56 72 78 78 74 68 65 63 61 55 46 38 34 34 32 29 23 17 10 4 1 1 1 1 1 1 0 1 1 1 0 0 0 0 0 0
0 0 0 0 0 0 0 1 3 9 18 26 36 50 64 71 71 68 64 60 57 54 51 44 33 27 25 24 22 20 16 9 5 4 3 1 1 1 1 1 1 1 1 0 0 0 0 0 0
0 0 0 0 0 0 0 2 6 11 18 25 34 46 58 63 62 58 56 54 50 47 46 40 28 20 19 17 16 16 13 9 7 6 3 1 0 0 1 1 1 1 0 0 0 0 0 0 0
0 0 0 0 0 0 0 2 7 10 14 22 31 41 50 53 52 48 46 44 41 37 36 33 25 18 17 16 16 15 13 10 8 5 2 1 0 0 1 1 0 0 0 0 0 0 0 0 0
0 0 0 0 0 0 0 2 5 8 11 17 26 35 40 42 43 43 37 32 29 27 26 25 22 19 18 17 16 16 13 11 8 5 2 1 1 1 0 0 0 0 0 0 0 0 0 0 0
0 0 0 0 0 0 0 1 4 7 8 13 20 27 32 33 37 38 33 26 23 22 19 18 17 18 18 18 17 15 13 9 7 4 3 2 1 1 0 0 0 0 0 0 0 0 0 0 0
0 0 0 0 1 0 0 1 3 5 6 10 16 21 26 29 32 34 31 26 23 21 17 12 11 14 16 18 19 17 12 8 6 5 4 2 1 0 0 0 0 0 0 0 0 0 0 0 0
0 0 0 0 0 0 0 1 3 4 5 10 13 14 19 25 28 29 28 26 25 22 17 12 10 12 14 16 18 17 13 10 7 6 6 3 1 0 0 0 0 0 0 0 0 0 0 0 0
0 0 0 0 0 0 0 0 1 2 4 8 11 10 13 20 24 25 25 24 24 20 16 14 13 12 13 13 12 13 12 11 9 8 7 4 2 2 1 0 0 0 0 0 0 0 0 0 0
0 0 0 0 0 0 0 0 0 0 1 5 8 8 10 16 20 21 22 21 18 15 12 12 13 13 12 10 8 8 9 9 9 8 6 4 3 2 2 1 0 0 0 0 0 0 0 0 0
0 0 0 0 0 0 0 0 0 0 0 2 4 7 12 16 16 17 18 16 13 11 10 9 10 11 10 8 7 6 6 7 8 8 6 5 4 3 3 2 1 0 0 0 0 0 0 0 0
0 0 0 0 0 0 0 0 0 0 0 0 1 6 13 16 16 16 17 16 13 12 11 9 7 7 7 7 6 5 5 5 6 7 8 6 5 4 4 3 2 1 0 0 0 0 0 0 0
0 0 0 0 0 0 0 0 0 0 0 0 2 6 12 15 16 17 17 16 14 12 12 11 9 7 6 6 5 4 4 4 6 8 9 8 6 6 5 4 3 1 0 0 0 0 0 0 0
0 0 0 0 0 0 0 0 0 0 0 1 2 6 9 12 13 15 14 12 11 10 11 11 11 10 7 6 6 5 4 3 5 7 9 9 7 6 5 4 3 2 1 1 1 0 0 0 0
0 0 0 0 0 0 0 0 0 0 0 1 2 5 8 10 10 10 10 8 8 9 9 9 10 10 7 7 7 5 4 3 4 6 7 8 8 7 6 4 3 2 1 1 2 1 0 0 0
0 0 0 0 0 0 0 0 0 0 0 1 2 5 9 11 9 8 9 8 7 8 7 6 6 7 7 7 7 6 5 5 5 6 7 9 10 10 9 6 5 3 2 2 3 2 0 0 0
0 0 0 0 0 0 0 0 0 0 0 1 3 6 9 12 11 9 10 9 7 7 6 4 4 5 7 8 8 7 7 7 7 8 8 10 11 12 11 9 7 5 3 3 4 3 1 0 0

GEFSSGP_con_prob3kmehi_120.txt.gz
EHI
3 7 13 16 12 5 2 1 0 0 0 0 0 0 1 1 1 3 19 51 76 70 55 47 41 25 9 3 3 3 1 0 0 0 0 0 0 0 0 0 0 0 0 0 0 0 0 0 0
3 6 10 9 6 2 1 0 0 0 0 0 0 0 1 1 1 7 29 62 78 69 54 48 42 29 14 5 4 4 2 0 0 0 0 0 0 1 1 1 0 0 0 0 0 0 0 0 0
1 3 5 3 1 0 0 0 0 0 0 0 0 1 2 2 4 16 44 71 80 69 56 50 44 32 20 11 7 5 3 1 0 0 0 0 1 2 2 1 0 0 0 0 0 0 0 0 0
2 2 2 1 0 0 0 0 0 0 0 0 2 5 7 8 14 30 53 74 82 72 59 52 45 35 24 16 10 7 3 1 1 2 1 1 1 2 2 1 0 0 0 0 0 0 0 0 0
4 3 2 1 0 0 0 0 0 0 0 0 4 15 21 22 30 42 55 73 83 75 61 54 50 38 25 15 10 7 3 1 2 3 3 2 2 2 1 0 0 0 0 0 0 0 0 0 0
2 2 1 0 0 0 0 0 0 0 0 0 5 22 38 41 41 45 52 67 79 77 65 58 52 38 22 12 8 5 2 1 2 5 6 4 1 1 0 0 0 0 0 0 0 0 0 0 0
1 1 0 0 0 0 0 0 0 0 0 0 6 26 48 54 48 45 48 57 71 77 69 58 47 34 19 9 5 3 1 1 3 7 7 4 1 0 0 1 1 1 0 0 0 0 0 0 0
0 0 0 0 0 0 0 0 0 0 0 1 7 28 54 63 55 50 49 53 66 75 68 53 41 31 18 8 3 2 1 1 3 6 5 2 1 0 1 2 2 1 0 0 0 0 0 0 0
0 0 0 0 0 0 0 0 0 0 2 5 13 34 60 69 64 58 57 60 69 74 65 49 40 30 18 9 3 2 1 0 1 2 2 1 0 0 1 3 3 1 0 0 0 0 0 0 0
0 0 0 0 0 0 0 0 0 1 4 10 23 44 64 73 71 67 65 69 76 76 66 53 44 32 21 14 8 3 1 0 0 1 0 0 0 0 1 3 2 1 0 0 0 0 0 0 0
0 0 0 0 0 0 0 0 0 2 6 13 30 51 67 74 75 72 69 73 79 78 69 61 53 40 32 28 16 5 3 1 1 2 2 1 1 1 1 1 1 0 0 0 0 0 0 1 1
0 0 0 0 0 0 0 0 1 3 7 14 31 52 67 73 75 74 73 77 80 78 71 66 60 52 49 41 21 8 6 5 6 7 5 5 4 4 5 3 2 1 1 1 1 2 2 2 2
0 0 0 0 0 0 0 0 2 3 6 14 30 51 66 73 75 76 78 81 81 79 75 70 65 63 62 51 28 16 17 19 19 14 10 10 10 11 12 9 7 5 4 5 6 5 4 2 1
0 0 0 0 0 0 0 1 3 4 6 13 28 47 64 74 76 78 82 82 80 77 75 72 68 66 65 53 36 29 31 34 31 24 19 18 18 19 18 14 11 9 8 9 8 6 4 2 2
0 0 0 0 0 0 0 1 3 4 6 13 25 43 62 74 77 79 82 82 78 73 70 68 64 61 58 49 41 37 35 36 36 33 30 26 25 24 20 16 11 9 8 8 6 3 2 3 3
0 0 0 0 0 0 0 1 2 1 5 14 26 43 64 76 76 76 78 77 72 68 64 60 56 55 52 48 46 41 36 36 37 38 36 31 28 25 20 16 12 8 6 5 3 2 2 2 2
0 0 0 0 0 0 0 0 0 0 5 16 30 47 66 76 74 71 72 69 65 62 60 56 53 51 51 50 48 45 42 40 40 40 39 34 27 21 18 16 12 7 6 4 4 4 3 1 1
0 0 0 0 0 0 0 0 1 2 7 17 31 49 66 73 71 68 66 63 59 57 57 54 49 47 47 47 46 44 42 42 41 39 37 32 24 18 16 15 11 8 7 6 5 4 2 0 0
0 0 0 0 0 0 0 1 3 6 8 15 31 49 62 69 70 68 65 60 56 53 53 50 44 40 41 44 44 41 38 37 35 33 32 29 23 16 14 14 12 10 8 6 3 1 0 0 0
0 0 0 0 0 0 0 2 7 9 9 13 28 43 56 66 70 68 64 60 56 52 48 46 42 37 36 40 41 38 36 34 28 26 28 27 21 14 13 15 13 10 9 4 1 0 0 0 0
0 0 0 0 0 0 0 2 8 12 12 13 22 34 47 59 67 66 61 57 54 50 45 42 41 39 36 36 36 35 33 28 22 22 25 24 18 11 11 15 13 9 6 2 0 0 0 0 0
0 0 0 0 0 0 0 1 6 13 14 13 18 27 37 51 62 62 58 54 49 45 41 40 41 41 38 35 34 32 27 22 17 19 23 22 17 11 11 15 15 9 4 1 1 0 0 0 0
0 0 0 0 0 0 0 0 4 9 13 16 21 27 34 45 57 60 56 49 42 37 35 38 40 42 39 35 34 31 24 18 16 19 23 22 18 13 12 16 15 10 4 2 1 1 0 0 1
0 0 0 0 0 0 0 0 2 5 9 17 28 33 34 43 52 55 50 44 38 33 32 35 40 41 37 33 32 29 24 20 19 22 21 19 18 14 13 14 14 10 5 2 1 1 0 0 1
0 0 0 0 0 0 0 0 1 2 5 15 29 35 35 41 49 51 48 44 39 34 34 38 43 42 36 31 28 26 24 22 21 21 18 15 14 14 14 14 13 10 6 3 1 0 0 0 1
0 0 0 0 0 0 0 1 2 2 3 11 24 31 33 37 46 50 49 45 40 36 36 40 44 43 36 29 26 25 23 20 17 16 13 12 12 14 18 20 17 12 6 3 1 0 0 0 0
0 0 0 0 0 0 0 2 3 3 3 10 20 27 31 35 42 47 47 42 37 35 36 39 41 38 30 26 24 23 20 16 13 12 11 11 12 16 22 25 20 13 7 4 3 2 2 1 0
0 0 0 0 0 0 0 1 2 3 3 9 17 25 31 35 38 42 43 39 35 35 37 39 38 32 25 22 21 19 16 14 13 13 14 14 15 18 23 24 20 15 10 7 5 4 3 1 1
0 0 0 0 0 0 0 0 1 1 3 7 15 23 30 33 36 42 44 40 37 38 40 40 37 29 22 20 20 18 15 14 15 15 15 16 18 20 22 22 19 16 13 11 8 6 3 1 1
0 0 0 0 0 0 0 0 0 0 1 6 13 22 28 32 36 43 45 43 40 41 41 39 35 27 20 19 21 20 18 16 16 15 14 15 19 21 22 22 20 17 14 13 11 7 3 1 1